Regional Weather Roundup
Issued by NWS

Home | Current Version | Previous Version | Graphics & Text | Print | Product List | Glossary On
Versions: 1 2 3 4 5 6 7 8 9 10 11 12 13 14 15 16 17 18 19 20 21 22 23 24 25 26 27 28 29 30 31 32 33 34 35 36 37 38 39 40 41 42 43 44 45 46 47 48 49 50
000
ASUS43 KMKX 170210
RWRWI

WISCONSIN REGIONAL WEATHER ROUNDUP
NATIONAL WEATHER SERVICE MILWAUKEE/SULLIVAN WI
800 PM CST TUE JAN 16 2018

NOTE: "FAIR" INDICATES FEW OR NO CLOUDS BELOW 12,000 FEET WITH NO
SIGNIFICANT WEATHER AND/OR OBSTRUCTIONS TO VISIBILITY.

WIZ001-002-006>008-014>016-023>028-170300-
NORTHWEST WISCONSIN

CITY           SKY/WX    TMP DP  RH WIND       PRES   REMARKS
SUPERIOR ARPT  FAIR       7   0  70 SW7       30.49F WCI  -4
ASHLAND        FAIR       9   2  73 SW10      30.45F WCI  -5
HAYWARD        FAIR       6  -1  73 SW8       30.46F WCI  -7
SIREN          FAIR       3  -4  73 W8        30.52F WCI -11
CUMBERLAND     FAIR       1  -6  71 SW5       30.49F WCI  -8
RICE LAKE      FAIR       1  -4  81 CALM      30.53S
CHETEK         FAIR       0  -4  84 MISG      30.52F
LADYSMITH      FAIR       5   0  81 SW6       30.49F WCI  -6
EAU CLAIRE     FAIR       2  -2  83 W5        30.54F WCI  -8
MENOMONIE      FAIR       3  -3  76 SW6       30.56F WCI  -8
NEW RICHMOND   FAIR      -2  -7  79 CALM      30.55F
OSCEOLA        FAIR       0  -6  77 SW6       30.58F WCI -12
$$

WIZ003>005-009-010-017-018-170300-
NORTH CENTRAL WISCONSIN

CITY           SKY/WX    TMP DP  RH WIND       PRES   REMARKS
MANITOWISH WTR FAIR       7   6  94 CALM      30.37F
ARBOR VITAE    FAIR      11   9  89 W5        30.37F WCI   3
WOODRUFF       FAIR      11   9  89 W5        30.37F WCI   3
RHINELANDER    FAIR       6   3  87 W10       30.38F WCI  -9
EAGLE RIVER    FAIR       4   0  86 W3        30.36F
LAND O LAKES   FAIR      -1  -4  85 CALM      30.37F
PHILLIPS       FAIR       8   5  85 SW5       30.42S WCI   0
TOMAHAWK       FAIR       9   5  84 CALM      30.42S
MEDFORD        FAIR       5   2  87 SW6       30.44S WCI  -6
MERRILL        FAIR      10   6  83 W7        30.44S WCI  -1
$$

WIZ029-030-035-036-043>047-170300-
CENTRAL WISCONSIN

CITY           SKY/WX    TMP DP  RH WIND       PRES   REMARKS
WAUSAU         FAIR       9   5  84 W8        30.44S WCI  -3
MOSINEE        CLEAR      9   7  92 W9        30.47S WCI  -5
MARSHFIELD     FAIR       5   2  87 W9        30.46F WCI  -9
STEVENS POINT  FAIR      10   6  85 W7        30.48S WCI  -1
WAUPACA        MOCLDY    19  11  68 W9        30.49F WCI   9
WAUTOMA        FAIR      10   6  84 W10       30.51F WCI  -4
WISC RAPIDS    FAIR       9   4  80 W7        30.51S WCI  -2
CAMP DOUGLAS   CLEAR      5   1  85 W6        30.52F WCI  -6
$$

WIZ011>013-019>022-031-037>040-048>050-170300-
NORTHEAST WISCONSIN

CITY           SKY/WX    TMP DP  RH WIND       PRES   REMARKS
ANTIGO         FAIR      10   7  85 W8        30.40F WCI  -2
SHAWANO        FAIR      16  10  78 CALM      30.47S
OCONTO         FAIR       4   1  86 CALM      30.47S
STURGEON BAY   FAIR      12   9  87 W6        30.47S WCI   3
GREEN BAY      FAIR       9   5  84 CALM      30.47F
MANITOWOC      CLOUDY    14  11  87 W8        30.49F WCI   3
APPLETON       MOCLDY    14   7  73 W7        30.45F WCI   4
CLINTONVILLE   MOCLDY    19   9  63 W6        30.47F WCI  11
OSHKOSH        CLOUDY    19  11  70 W5        30.48F WCI  12
$$

WIZ032>034-041-042-053>061-170300-
SOUTHWEST WISCONSIN

CITY           SKY/WX    TMP DP  RH WIND       PRES   REMARKS
LA CROSSE      FAIR       4  -2  76 W7        30.60S WCI  -8
SPARTA         FAIR       6   4  91 SW3       30.56F
VIROQUA        FAIR       4   2  92 W8        30.52F WCI  -9
BOSCOBEL       FAIR       8   3  80 S6        30.59F WCI  -2
PRAIRIE DU CHI FAIR       4  -2  75 SW5       30.61S WCI  -5
PLATTEVILLE    FAIR       6   4  92 W10       30.56S WCI  -9
$$

WIZ056-057-062-063-064-067-068-170300-
SOUTH CENTRAL WISCONSIN

CITY           SKY/WX    TMP DP  RH WIND       PRES   REMARKS
REEDSBURG      FAIR       9   5  82 W6        30.53F WCI  -1
BARABOO/DELLS  FAIR      10   5  81 W5        30.52S WCI   1
LONE ROCK      FAIR       5   3  91 W6        30.57S WCI  -6
MINERAL POINT  FAIR       9   7  92 W7        30.53S WCI  -3
MADISON        FAIR      13   7  77 W6        30.53R WCI   4
MIDDLETON      FAIR      11   7  83 W8        30.53F WCI  -1
WATERTOWN      CLOUDY    15  11  85 W5        30.51S WCI   7
MONROE         FAIR      10   5  79 W14       30.52S WCI  -5
JANESVILLE     CLEAR     10   9  92 W5        30.53S WCI   2
$$

WIZ051-052-058>065-066-070>072-170300-
SOUTHEAST WISCONSIN

CITY           SKY/WX    TMP DP  RH WIND       PRES   REMARKS
MILWAUKEE      FAIR      18  10  71 W5        30.51R WCI  11
WAUKESHA       CLEAR     10   7  85 W7        30.50F WCI   0
MILWAUKEE/TIMM CLEAR     12   9  85 CALM      30.51S
RACINE         FAIR      15   9  76 NW7       30.52S WCI   5
BURLINGTON     FAIR       7   3  84 NW6       30.52S WCI  -4
KENOSHA        FAIR      11   5  77 W6        30.51R WCI   1
FOND DU LAC    CLOUDY    20  10  65 W8        30.49S WCI  10
SHEBOYGAN      FAIR      10   7  87 W6        30.48F WCI   0
WEST BEND      MOCLDY     9   9 100 CALM      30.49S
JUNEAU         CLOUDY    15  11  85 W3        30.51S
$$

LSZ147-162-170300-
LAKE SUPERIOR

STATION/POSITION TIME  TEMP    WIND        PRES    WAVE
                       AIR SEA DIR/SP/G            HT/PER
                 (UTC) (F)     (DEG/KT/KT) (MB)    (FT/S)
DEVILS ISLAND    0200   15     230/ 17/ 22 1031.2F
SAXON HARBOR     0040   14     240/  5/  9 1031.5S
$$

LMZ867-665-643>646-170300-
LAKE MICHIGAN

STATION/POSITION TIME  TEMP    WIND        PRES    WAVE
                       AIR SEA DIR/SP/G            HT/PER
                 (UTC) (F)     (DEG/KT/KT) (MB)    (FT/S)
NORTHPORT PIER   0133   16     260/  3/  9 1030.8F
KEWAUNEE LAKESHO 0148   14     310/  4/  5 1031.1F
SHEBOYGAN LAKESH 0200   17     270/  8/  9 1033.8F
PORT WASHINGTON  0130   17     290/  5/  6 1033.9S
MILWAUKEE LAKESH 0150   19     290/  7/  8   N/A
KENOSHA   LAKESH 0200   16     290/  8/ 13 1033.2
$$

TC  - TEMPERATURE IN CELSIUS
VSB - VISIBILITY IN STATUTE MILES
WCI - WIND CHILL INDEX
HX  - HEAT INDEX




USA.gov is the U.S. government's official web portal to all federal, state and local government web resources and services.